Location: Dresden
(51.0483°N, 13.7137°E)
Time: 06:41:23
(UTC+01:00)

Tiangong 1 - Visible Passes

Search period start: 22 November 2017 00:00
Search period end: 02 December 2017 00:00
Orbit: 284 x 308 km, 42.8° (Epoch: 21 November)

Date Brightness Start Highest point End Pass type
(mag) Time Alt. Az. Time Alt. Az. Time Alt. Az.
28 Nov 3.4 18:08:02 10° SSW 18:08:39 11° S 18:08:39 11° S visible
29 Nov 3.4 18:13:33 10° SSW 18:14:28 13° S 18:14:28 13° S visible
30 Nov 3.5 18:19:16 10° SW 18:20:09 13° SSW 18:20:09 13° SSW visible
01 Dec 3.4 16:51:06 10° SSW 16:52:17 12° S 16:53:29 10° SE visible
01 Dec 3.6 18:25:06 10° SW 18:25:46 12° SSW 18:25:46 12° SSW visible
